{"data":{"norad_id":69274,"epoch":"2026-09-19T22:16:44.953248Z","epoch_age_seconds":79485,"freshness":"FRESH","line1":"1 69274U 26118H   26262.92829807  .00001226  00000+0  18976-3 0  9993","line2":"2 69274  51.9021 346.8316 0000250  86.4021 273.6970 14.79932471 18119","mean_motion":14.79932471,"eccentricity":2.5e-5,"inclination_deg":51.9021,"raan_deg":346.8316,"arg_perigee_deg":86.4021,"mean_anomaly_deg":273.697,"bstar":0.00018976,"rev_number":1811,"period_min":97.301736952023,"perigee_km":629.36210723993,"apogee_km":629.71249095488,"semimajor_km":7007.6742990974,"source":"CELESTRAK","updated_at":"2026-09-20T09:00:24.777727Z"}}